Wind_Speed
16 16 16 15 15 15 14 14 13 12 12 13 14 14 15 16 17 18 19 19 19 20 20 20 20 20 21 21 21 22 22 23 23 23 24 24 25 25 26 26 26 27 27
17 17 17 17 17 16 16 15 15 14 14 15 16 17 18 19 19 20 21 21 21 22 22 22 23 23 23 24 24 25 25 26 26 27 27 27 28 28 29 29 30 30 31
18 19 19 19 18 18 18 17 17 17 17 18 19 19 20 20 21 22 22 22 23 23 23 23 24 24 24 26 26 26 26 27 28 29 29 30 31 31 32 32 33 33 34
20 20 21 21 21 20 20 19 19 19 20 20 21 21 21 22 23 23 24 24 24 24 24 24 24 25 26 27 28 28 29 30 31 31 32 33 34 35 35 36 37 37 38
22 22 22 22 22 21 21 21 21 21 22 22 22 22 23 23 24 25 25 24 25 25 25 25 25 26 27 28 29 30 32 33 34 35 36 36 37 38 39 40 41 42 42
23 24 24 23 23 22 22 23 23 23 24 25 25 25 25 26 26 26 25 26 27 26 27 27 28 29 30 31 32 33 34 35 37 38 39 40 41 42 43 45 45 46 46
25 25 25 25 25 25 24 25 25 25 26 26 26 26 26 27 27 28 28 28 28 28 29 30 30 31 31 32 34 35 36 38 40 41 43 44 46 46 48 49 49 50 50
27 27 27 27 27 26 26 26 27 27 27 27 27 27 27 27 29 30 30 30 30 31 31 32 32 33 34 35 36 38 39 40 42 43 45 47 48 49 51 53 53 53 53
30 29 29 29 28 28 27 26 27 27 27 27 28 28 28 29 29 30 31 32 32 32 33 34 34 36 37 38 39 41 43 44 45 47 48 50 51 53 54 56 56 56 57
31 31 29 29 28 27 26 24 24 25 26 26 27 28 29 30 30 31 31 33 34 35 36 37 38 39 40 41 43 44 46 47 48 50 51 52 53 55 56 57 58 58 59
29 30 29 27 25 24 24 24 24 24 26 27 28 29 31 32 33 34 35 35 37 38 38 40 41 42 44 45 45 47 49 50 51 53 54 54 55 57 59 60 60 61 62
27 26 26 26 24 23 24 24 25 26 27 28 30 31 33 34 35 37 38 39 40 41 42 43 45 46 47 48 49 50 52 53 54 55 55 56 57 59 62 64 64 64 65
25 24 24 24 24 24 25 26 27 28 29 31 32 33 35 36 38 39 41 42 43 44 45 46 47 48 50 51 52 54 55 55 56 57 58 59 60 62 63 64 65 66 67
21 21 21 23 24 25 26 27 27 29 31 33 34 36 37 38 40 41 43 44 46 46 47 48 49 51 52 54 55 56 57 57 58 59 60 61 62 62 62 63 63 64 65
20 21 23 24 25 26 28 29 29 31 33 34 35 36 38 40 41 42 43 44 46 47 48 49 51 52 54 55 56 57 58 59 59 60 60 60 61 61 61 61 61 61 61
21 21 22 24 26 28 29 31 32 34 35 36 37 38 39 40 41 42 43 45 46 47 49 50 51 53 54 54 55 55 56 56 57 57 57 58 58 59 59 59 58 56 56
23 24 26 28 29 30 32 33 34 35 36 37 37 38 39 40 41 42 43 44 46 47 48 49 50 51 52 52 53 53 54 54 54 54 54 54 55 55 55 54 52 52 51
25 27 28 30 31 33 34 35 35 36 37 38 38 38 39 40 41 42 42 43 44 45 46 47 47 48 49 49 49 49 49 49 49 48 47 47 46 46 46 46 45 45 44
28 29 30 32 33 34 35 35 36 36 37 37 37 38 38 39 39 39 40 41 41 42 42 42 42 42 42 42 42 42 42 41 40 39 38 37 37 36 36 37 38 38 39
29 31 32 33 33 34 34 34 35 35 35 35 36 36 36 37 37 37 38 38 39 39 38 38 37 36 35 35 34 34 34 34 33 33 32 32 31 30 30 31 32 33 34
30 31 32 33 33 33 32 32 33 33 33 34 34 34 34 34 34 34 35 35 35 35 34 33 32 31 30 29 29 29 29 29 29 29 29 28 28 28 28 28 29 29 30
30 30 30 30 30 30 30 31 31 32 32 31 31 31 31 31 32 32 32 32 32 31 30 29 28 27 27 27 26 26 26 25 26 25 25 25 24 25 25 25 25 25 26
29 28 29 29 29 29 29 30 30 30 29 29 29 29 29 29 29 29 28 28 27 27 26 26 25 25 25 24 24 24 24 23 23 23 23 23 22 22 21 21 22 22 22
27 27 27 27 27 27 27 28 28 27 27 27 27 26 26 26 25 25 25 24 24 23 23 23 23 23 22 22 21 21 21 22 21 21 20 20 19 19 19 20 20 21 21
25 25 25 25 25 25 25 25 25 25 25 25 24 23 23 23 22 22 21 21 21 21 21 21 20 20 20 20 19 19 19 20 20 19 18 18 18 19 19 19 20 20 21
22 22 22 22 22 22 22 22 22 22 22 21 21 20 20 19 19 19 19 19 19 19 19 19 18 18 18 18 17 18 18 18 18 17 17 17 17 18 18 19 19 20 20
Wind_Direction
231 230 230 231 233 236 240 245 253 261 269 274 277 281 282 283 286 287 287 286 284 284 284 281 282 280 278 278 279 279 278 277 277 278 278 277 277 276 275 274 273 273 273
234 233 232 233 236 240 243 249 255 262 268 275 279 281 283 284 285 286 285 285 285 284 281 279 278 277 276 277 277 277 277 276 276 277 277 277 276 276 276 274 273 273 273
237 238 238 239 241 245 248 253 257 263 270 275 280 283 284 284 286 286 285 285 286 284 280 278 278 277 276 276 277 277 277 276 276 276 276 276 275 274 274 273 273 273 274
241 243 243 244 246 250 252 254 258 264 270 277 281 283 283 283 286 286 285 284 284 283 279 277 276 276 276 275 275 277 277 277 276 276 277 277 276 275 275 274 275 275 275
244 246 248 248 249 251 253 255 258 264 269 274 279 280 281 282 283 284 283 282 282 281 279 277 275 275 274 273 274 276 277 277 277 277 276 277 277 276 276 275 275 275 276
244 246 248 249 251 254 257 259 263 268 270 274 277 279 280 282 281 281 280 279 280 280 279 278 277 275 274 272 273 275 276 277 277 277 277 277 277 277 277 276 276 276 276
243 245 247 250 254 257 260 262 266 269 271 274 276 279 281 282 282 281 281 279 278 278 279 278 277 277 276 275 275 275 275 277 277 276 276 277 277 277 278 278 277 276 276
243 245 249 252 254 257 260 264 267 268 270 272 276 279 281 282 282 282 281 279 278 279 279 279 279 278 277 276 276 275 276 276 276 276 276 277 278 278 278 278 277 276 276
246 247 250 254 256 258 261 265 269 270 273 274 275 279 280 281 282 283 281 279 279 280 281 280 279 279 278 276 275 276 277 276 275 275 276 276 277 277 277 277 277 276 277
248 249 251 255 256 258 262 267 270 274 275 276 277 279 282 282 284 284 283 282 282 283 283 282 282 281 281 279 277 277 277 277 277 276 275 276 277 277 276 277 277 278 277
249 250 253 256 257 260 265 269 272 275 278 279 281 282 283 283 284 285 285 285 285 285 285 284 284 282 281 280 279 278 278 278 277 276 276 276 276 276 276 277 277 277 277
253 253 256 258 262 264 269 273 275 277 280 282 283 284 284 285 286 286 285 285 285 285 285 284 283 283 282 281 280 280 279 279 279 277 277 277 277 277 277 278 278 278 278
256 258 262 263 265 268 270 273 277 278 280 282 283 284 284 284 284 285 285 285 285 286 285 285 284 283 283 283 282 281 281 281 280 279 278 277 277 277 277 278 278 278 278
262 265 266 266 268 270 272 276 279 280 281 283 284 285 285 285 285 285 285 285 286 286 286 286 285 285 285 284 284 284 283 282 281 280 279 279 278 277 277 277 277 277 277
269 270 272 273 275 276 278 280 281 282 284 285 286 286 286 286 286 286 286 286 287 287 287 286 286 286 286 285 285 284 284 283 281 280 280 280 279 279 279 280 279 279 279
274 278 280 282 282 283 283 283 284 284 285 287 287 288 288 288 287 287 288 289 289 288 288 288 288 287 287 286 285 285 285 284 283 283 282 282 282 282 282 282 282 281 281
278 280 282 283 285 285 286 286 287 288 288 289 289 289 290 290 290 290 290 290 289 289 289 289 289 288 288 288 287 287 287 287 287 287 287 286 285 284 284 284 284 285 285
278 281 283 285 286 288 288 289 290 291 291 290 291 291 291 291 291 291 291 291 291 292 293 293 292 291 291 290 290 290 290 291 292 292 293 292 290 289 288 288 289 290 291
281 282 283 285 287 288 289 290 291 292 292 291 292 292 292 292 292 292 292 293 294 295 295 296 296 296 296 295 296 295 296 296 297 299 299 299 298 297 295 294 294 293 293
281 283 285 287 288 289 290 291 292 293 292 293 294 293 293 292 292 292 294 295 296 296 297 299 300 301 302 303 304 305 304 305 305 306 306 305 305 304 303 301 300 300 299
282 284 285 286 288 290 291 292 293 294 294 294 293 293 293 294 294 295 296 297 298 299 301 302 304 306 307 308 309 311 311 311 311 311 311 311 310 309 309 309 308 307 308
281 283 285 287 288 289 290 292 293 294 295 294 294 295 295 296 297 298 299 299 300 302 304 305 307 308 310 311 312 314 315 316 316 317 316 315 314 314 315 316 316 316 316
282 284 286 287 289 289 290 291 292 293 294 295 296 297 298 299 300 302 303 304 305 307 307 308 309 311 313 316 317 319 320 321 321 321 320 319 319 320 322 323 324 324 324
284 286 287 288 289 289 291 292 294 294 295 297 299 300 301 302 303 305 306 307 308 310 311 312 314 316 318 320 322 323 325 325 325 325 326 327 327 328 329 329 330 332 332
285 286 287 288 289 290 293 294 295 297 298 300 301 301 303 305 306 308 310 312 314 315 316 317 319 320 321 323 326 329 330 330 331 332 333 334 335 335 336 337 338 338 338
284 285 287 288 290 292 293 294 296 298 300 301 301 303 305 308 310 312 314 316 319 320 321 323 324 325 326 328 331 333 334 335 338 340 341 341 342 343 344 345 346 346 346
Height
5870 5871 5872 5873 5874 5875 5875 5876 5877 5877 5878 5878 5878 5877 5877 5876 5875 5874 5874 5873 5872 5871 5870 5869 5868 5867 5867 5867 5866 5866 5866 5865 5865 5864 5864 5863 5863 5862 5862 5861 5861 5860 5860
5867 5868 5869 5870 5871 5872 5872 5873 5873 5873 5874 5873 5873 5873 5872 5871 5871 5870 5869 5868 5867 5866 5865 5864 5863 5863 5862 5862 5861 5861 5861 5860 5860 5859 5859 5858 5857 5857 5856 5855 5855 5854 5853
5863 5864 5866 5866 5867 5868 5869 5869 5869 5869 5869 5869 5869 5868 5867 5867 5866 5865 5864 5863 5862 5861 5860 5859 5858 5857 5857 5856 5856 5855 5855 5854 5854 5853 5852 5852 5851 5850 5849 5848 5847 5847 5846
5859 5860 5861 5862 5863 5863 5864 5864 5865 5865 5864 5864 5863 5863 5862 5861 5860 5860 5858 5857 5857 5855 5854 5854 5853 5852 5852 5851 5850 5849 5849 5848 5847 5846 5845 5844 5843 5842 5841 5840 5839 5839 5838
5855 5856 5857 5858 5858 5859 5859 5859 5860 5859 5859 5859 5858 5858 5857 5856 5855 5854 5853 5852 5851 5850 5849 5848 5847 5847 5846 5845 5844 5843 5842 5841 5840 5839 5838 5836 5835 5834 5832 5831 5830 5829 5828
5850 5851 5852 5852 5853 5854 5854 5854 5855 5854 5854 5853 5853 5852 5852 5851 5849 5848 5847 5846 5845 5844 5843 5842 5841 5840 5839 5838 5837 5836 5834 5833 5831 5830 5829 5827 5826 5824 5823 5821 5820 5819 5817
5845 5846 5847 5847 5848 5848 5849 5849 5849 5849 5848 5848 5847 5846 5845 5844 5843 5842 5841 5840 5839 5837 5836 5835 5834 5833 5832 5831 5829 5828 5826 5824 5823 5821 5819 5817 5816 5814 5812 5810 5808 5807 5805
5839 5840 5841 5841 5842 5843 5843 5843 5843 5843 5842 5841 5841 5840 5839 5838 5836 5835 5834 5833 5832 5831 5829 5828 5827 5825 5824 5822 5821 5819 5817 5815 5813 5811 5808 5807 5804 5802 5800 5797 5796 5794 5792
5832 5833 5834 5835 5836 5836 5837 5837 5837 5836 5836 5835 5834 5833 5832 5831 5830 5828 5827 5826 5824 5823 5822 5820 5819 5817 5815 5814 5812 5810 5808 5805 5803 5800 5797 5795 5792 5790 5787 5785 5782 5780 5778
5826 5827 5828 5829 5830 5830 5830 5830 5830 5830 5829 5828 5827 5826 5825 5824 5822 5821 5820 5818 5817 5815 5813 5812 5810 5808 5806 5804 5801 5799 5797 5794 5791 5789 5786 5782 5780 5777 5774 5771 5768 5766 5763
5819 5821 5822 5823 5823 5824 5824 5824 5824 5823 5823 5822 5821 5819 5818 5816 5814 5813 5811 5810 5808 5806 5804 5802 5800 5798 5795 5793 5790 5787 5785 5782 5779 5776 5772 5769 5766 5763 5760 5757 5754 5751 5747
5812 5814 5815 5816 5817 5817 5818 5818 5818 5817 5816 5815 5813 5812 5810 5809 5807 5805 5803 5801 5799 5797 5794 5792 5789 5786 5784 5781 5778 5775 5772 5768 5765 5762 5758 5755 5751 5748 5744 5741 5738 5734 5730
5806 5808 5809 5809 5810 5811 5811 5811 5811 5810 5809 5808 5806 5804 5802 5800 5798 5796 5794 5791 5789 5786 5783 5780 5777 5774 5771 5768 5764 5761 5757 5754 5750 5747 5743 5739 5735 5731 5727 5724 5720 5716 5713
5800 5802 5803 5803 5804 5804 5804 5804 5803 5802 5801 5799 5798 5795 5793 5791 5789 5786 5784 5781 5778 5775 5772 5769 5765 5761 5758 5754 5750 5746 5743 5738 5735 5731 5727 5723 5718 5714 5710 5706 5702 5698 5694
5795 5796 5797 5797 5797 5797 5797 5796 5795 5794 5792 5791 5789 5786 5784 5781 5779 5776 5773 5770 5767 5763 5760 5756 5752 5748 5744 5740 5736 5731 5727 5723 5719 5714 5710 5706 5701 5697 5693 5688 5684 5680 5676
5789 5790 5790 5790 5790 5789 5789 5788 5786 5784 5783 5781 5779 5777 5774 5771 5768 5765 5762 5758 5755 5751 5747 5743 5739 5735 5730 5726 5721 5716 5712 5707 5702 5698 5693 5689 5685 5680 5675 5671 5667 5663 5659
5783 5783 5783 5783 5782 5781 5780 5779 5777 5776 5774 5772 5769 5767 5764 5761 5757 5754 5750 5746 5743 5739 5734 5730 5725 5721 5716 5711 5707 5702 5697 5692 5687 5682 5677 5672 5668 5663 5659 5655 5651 5647 5643
5775 5775 5775 5775 5774 5773 5771 5770 5768 5766 5764 5762 5759 5756 5753 5750 5746 5743 5739 5735 5731 5726 5722 5717 5712 5707 5703 5698 5693 5688 5683 5677 5672 5668 5663 5658 5654 5649 5645 5642 5638 5635 5631
5767 5767 5767 5766 5765 5763 5762 5760 5758 5756 5754 5751 5748 5745 5742 5739 5735 5732 5728 5724 5719 5715 5710 5706 5701 5695 5690 5685 5680 5675 5670 5665 5660 5656 5651 5647 5642 5638 5634 5631 5628 5624 5621
5759 5759 5758 5757 5756 5754 5752 5750 5748 5746 5743 5741 5738 5735 5732 5728 5725 5721 5717 5713 5709 5705 5700 5695 5691 5686 5681 5676 5671 5666 5661 5656 5651 5647 5642 5638 5634 5630 5627 5623 5620 5616 5611
5751 5750 5749 5748 5747 5745 5743 5741 5739 5736 5734 5731 5728 5725 5722 5718 5714 5711 5707 5703 5699 5695 5691 5686 5682 5677 5673 5668 5664 5659 5654 5649 5644 5640 5636 5632 5628 5624 5620 5616 5612 5608 5603
5742 5742 5741 5739 5738 5736 5734 5732 5730 5727 5725 5722 5719 5716 5712 5709 5706 5702 5698 5695 5691 5687 5683 5679 5675 5670 5666 5662 5657 5653 5648 5644 5639 5635 5631 5627 5623 5619 5614 5610 5606 5602 5597
5734 5733 5732 5731 5729 5727 5725 5723 5721 5719 5716 5713 5710 5707 5704 5701 5697 5694 5690 5687 5683 5680 5676 5672 5668 5664 5660 5656 5652 5648 5643 5639 5635 5631 5627 5622 5618 5614 5610 5606 5602 5597 5593
5726 5725 5724 5722 5721 5719 5717 5715 5713 5711 5708 5706 5703 5700 5697 5694 5690 5687 5684 5680 5677 5674 5670 5666 5663 5659 5655 5651 5647 5644 5639 5635 5631 5627 5623 5619 5615 5611 5607 5603 5598 5594 5590
5718 5717 5716 5715 5713 5711 5709 5708 5706 5704 5701 5699 5696 5693 5690 5687 5684 5681 5678 5675 5672 5669 5665 5661 5658 5654 5651 5647 5644 5640 5636 5632 5628 5624 5620 5617 5613 5608 5604 5600 5596 5591 5587
5711 5710 5709 5708 5706 5705 5703 5701 5699 5698 5695 5693 5690 5688 5685 5683 5680 5676 5674 5670 5667 5664 5661 5657 5654 5651 5647 5644 5640 5637 5633 5630 5626 5622 5618 5615 5611 5607 5603 5599 5594 5589 5585